Weather History for Stillwater, OK

Change the Weather History Date:

Saturday, November 9, 2013

  Actual Average Record
Temperature  
Mean Temperature 56 °F -  
Max Temperature 68 °F 58 °F 82 °F (2002)
Min Temperature 45 °F 39 °F 28 °F (2000)
Degree Days  
Heating Degree Days 8    
Growing Degree Days 6 (Base 50)    
Moisture  
Dew Point 41 °F    
Average Humidity 61    
Maximum Humidity 90    
Minimum Humidity 37    
Precipitation  
Precipitation 0.00 in - - ()
Sea Level Pressure  
Sea Level Pressure 30.12 in    
Wind  
Wind Speed 7 mph (SSE)    
Max Wind Speed 10 mph    
Max Gust Speed -    
Visibility 10 miles    
Events      
Averages and records for this station are not official NWS values.
T = Trace of Precipitation, MM = Missing Value Source: NWS Daily Summary

Daily Weather History Graph

Daily Weather History Graph

Search for Another Location

Airport:

Trip Planner

Search our weather history database for the weather conditions in past years. The results will help you decide how hot, cold, wet, or windy it might be!

Date:

Astronomy

Nov. 09, 2013 Rise Set
Actual Time 6:59 AM CST 5:24 PM CST
Civil Twilight 6:32 AM CST 5:51 PM CST
Nautical Twilight 6:01 AM CST 6:22 PM CST
Astronomical Twilight 5:31 AM CST 6:52 PM CST
Moon 12:38 PM CST (11/9) 11:53 PM CST (11/9)
Length of Visible Light 11h 19m
Length of Day
10h 25m
Waxing Crescent, 44% of the Moon is Illuminated
Nov 9
Waxing Crescent
Nov 9
First Quarter
Nov 17
Full
Nov 25
Last Quarter
Dec 2
New

Hourly Weather History & Observations

Time (CST) Temp. Windchill Dew Point Humidity Pressure Visibility Wind Dir Wind Speed Gust Speed Precip Events Conditions
12:53 AM 50.0 °F - 35.1 °F 57% 30.03 in 10.0 mi South 10.4 mph - N/A   Clear
1:53 AM 48.9 °F - 36.0 °F 61% 30.02 in 10.0 mi South 10.4 mph - N/A   Clear
2:53 AM 48.9 °F - 36.0 °F 61% 30.02 in 10.0 mi South 9.2 mph - N/A   Clear
3:53 AM 46.0 °F 42.5 °F 37.0 °F 71% 30.02 in 10.0 mi South 6.9 mph - N/A   Clear
4:53 AM 45.0 °F 40.6 °F 37.9 °F 76% 30.04 in 10.0 mi South 8.1 mph - N/A   Clear
5:53 AM 46.0 °F 42.5 °F 37.9 °F 73% 30.06 in 10.0 mi SSE 6.9 mph - N/A   Clear
6:53 AM 45.0 °F 41.8 °F 39.0 °F 80% 30.08 in 10.0 mi SE 5.8 mph - N/A   Clear
7:53 AM 48.9 °F - 39.9 °F 71% 30.10 in 10.0 mi SE 5.8 mph - N/A   Clear
8:53 AM 54.0 °F - 41.0 °F 62% 30.13 in 10.0 mi SE 5.8 mph - N/A   Clear
9:53 AM 60.1 °F - 42.1 °F 51% 30.14 in 10.0 mi South 8.1 mph - N/A   Clear
10:53 AM 63.0 °F - 41.0 °F 45% 30.13 in 10.0 mi SSE 6.9 mph - N/A   Mostly Cloudy
11:53 AM 64.9 °F - 42.1 °F 43% 30.12 in 10.0 mi SSE 8.1 mph - N/A   Overcast
12:53 PM 66.0 °F - 42.1 °F 42% 30.11 in 10.0 mi South 8.1 mph - N/A   Overcast
1:53 PM 66.9 °F - 42.1 °F 40% 30.10 in 10.0 mi SSE 3.5 mph - N/A   Overcast
2:53 PM 68.0 °F - 42.1 °F 39% 30.10 in 10.0 mi SE 5.8 mph - N/A   Scattered Clouds
3:53 PM 68.0 °F - 41.0 °F 37% 30.11 in 10.0 mi SSE 6.9 mph - N/A   Clear
4:53 PM 64.0 °F - 39.9 °F 41% 30.12 in 10.0 mi SE 6.9 mph - N/A   Clear
5:53 PM 55.9 °F - 41.0 °F 57% 30.14 in 10.0 mi East 4.6 mph - N/A   Clear
6:53 PM 55.9 °F - 43.0 °F 62% 30.17 in 10.0 mi SSE 8.1 mph - N/A   Clear
7:53 PM 55.0 °F - 45.0 °F 69% 30.20 in 10.0 mi ESE 3.5 mph - N/A   Overcast
8:53 PM 53.1 °F - 45.0 °F 74% 30.22 in 10.0 mi ESE 3.5 mph - N/A   Partly Cloudy
9:53 PM 50.0 °F - 44.1 °F 80% 30.23 in 10.0 mi SE 3.5 mph - N/A   Clear
10:53 PM 48.9 °F - 44.1 °F 83% 30.25 in 10.0 mi SE 4.6 mph - N/A   Clear
11:53 PM 46.9 °F - 44.1 °F 90% 30.25 in 10.0 mi Calm Calm - N/A   Clear